Location: Central Falls
(41.8900°N, 71.3929°W)
Time: 11:05:01
(UTC+00:00)

A-11 Canister half - Pass Details

Date: 12 December 2023
Orbit: 1512 x 1687 km, 47.2° (Epoch: 20 February)

Event Time Altitude Azimuth Distance (km) Brightness Sun altitude
Rises 01:02:26 0° 194° (SSW) 4,648 11.6 -41.5°
Enters shadow 01:05:27 - 185° (S) 3,826 11.0 -42.1°
Reaches altitude 10° 01:06:00 10° 183° (S) 3,683 - -42.2°
Maximum altitude 01:13:25 28° 129° (SE) 2,605 - -43.5°
Drops below altitude 10° 01:21:01 10° 76° (ENE) 3,789 - -44.9°
Sets 01:24:43 0° 66° (ENE) 4,805 - -45.6°
